Montauk, NY

11:34 PM EDT on March 24, 2017 (GMT -0400)
Montauk

Weather History for KMTP - October, 2013

Change the Weather History Date:

Wednesday, October 9, 2013

  Actual Average (KHTO) Record (KHTO)
Temperature  
Mean Temperature 60 °F -  
Max Temperature 63 °F 65 °F 79 °F (1939)
Min Temperature 57 °F 47 °F 30 °F (1988)
Degree Days  
Heating Degree Days 5    
Growing Degree Days 10 (Base 50)    
Moisture  
Dew Point 47 °F    
Average Humidity 65    
Maximum Humidity 74    
Minimum Humidity 56    
Precipitation  
Precipitation 0.00 in - - ()
Sea Level Pressure  
Sea Level Pressure 30.37 in    
Wind  
Wind Speed 9 mph (NE)    
Max Wind Speed 13 mph    
Max Gust Speed 23 mph    
Averages and records for this station are not official NWS values.
T = Trace of Precipitation, MM = Missing Value Source: NWS Daily Summary

Daily Weather History Graph

Daily Weather History Graph

Search for Another Location

Airport or City:

Trip Planner

Search our weather history database for the weather conditions in past years. The results will help you decide how hot, cold, wet, or windy it might be!

Date:

Astronomy

Oct. 09, 2013 Rise Set
Actual Time 6:52 AM EDT 6:16 PM EDT
Civil Twilight 6:25 AM EDT 6:43 PM EDT
Nautical Twilight 5:53 AM EDT 7:15 PM EDT
Astronomical Twilight 5:21 AM EDT 7:47 PM EDT
Moon 11:47 AM EDT (10/9) 9:45 PM EDT (10/9)
Length of Visible Light 12h 18m
Length of Day
11h 23m
Waxing Crescent, 25% of the Moon is Illuminated
Oct 9
Waxing Crescent
Oct 11
First Quarter
Oct 18
Full
Oct 26
Last Quarter
Nov 3
New

Hourly Weather History & Observations

Time (EDT) Temp. Dew Point Humidity Pressure Visibility Wind Dir Wind Speed Gust Speed Precip Events Conditions
12:54 AM 57.9 °F 46.0 °F 65% 30.35 in - NNE 6.9 mph - N/A   Unknown
1:54 AM 57.9 °F 45.0 °F 62% 30.36 in - NE 9.2 mph 16.1 mph N/A   Unknown
2:54 AM 57.0 °F 46.9 °F 69% 30.35 in - NNE 6.9 mph - N/A   Unknown
3:54 AM 57.0 °F 48.9 °F 74% 30.35 in - NE 6.9 mph - N/A   Unknown
4:54 AM 57.9 °F 46.0 °F 65% 30.36 in - ENE 9.2 mph 18.4 mph N/A   Unknown
5:54 AM 57.0 °F 44.1 °F 62% 30.36 in - NE 11.5 mph 23.0 mph N/A   Unknown
6:54 AM 57.0 °F 44.1 °F 62% 30.37 in - NE 11.5 mph 19.6 mph N/A   Unknown
7:54 AM 57.0 °F 45.0 °F 64% 30.39 in - NE 12.7 mph 20.7 mph N/A   Unknown
8:54 AM 57.9 °F 46.0 °F 65% 30.41 in - ENE 11.5 mph 20.7 mph N/A   Unknown
9:54 AM 59.0 °F 46.9 °F 64% 30.41 in - NE 12.7 mph 20.7 mph N/A   Unknown
10:54 AM 59.0 °F 48.0 °F 67% 30.42 in - NE 10.4 mph 18.4 mph N/A   Unknown
11:54 AM 61.0 °F 46.0 °F 58% 30.40 in - ENE 10.4 mph 23.0 mph N/A   Unknown
12:54 PM 61.0 °F 46.9 °F 60% 30.40 in - ENE 11.5 mph 23.0 mph N/A   Unknown
1:54 PM 63.0 °F 46.9 °F 56% 30.38 in - ENE 12.7 mph 21.9 mph N/A   Unknown
2:54 PM 62.1 °F 48.0 °F 60% 30.38 in - ENE 9.2 mph 17.3 mph N/A   Unknown
3:54 PM 61.0 °F 46.9 °F 60% 30.38 in - ENE 10.4 mph 19.6 mph N/A   Unknown
4:54 PM 60.1 °F 48.0 °F 64% 30.37 in - ENE 9.2 mph - N/A   Unknown
5:54 PM 59.0 °F 48.0 °F 67% 30.36 in - ENE 8.1 mph 18.4 mph N/A   Unknown
6:54 PM 57.9 °F 48.0 °F 70% 30.35 in - ENE 10.4 mph 17.3 mph N/A   Unknown
7:54 PM 57.9 °F 48.0 °F 70% 30.34 in - Variable 5.8 mph 16.1 mph N/A   Unknown
8:54 PM 57.9 °F 46.9 °F 67% 30.34 in - ENE 8.1 mph 17.3 mph N/A   Unknown
9:54 PM 57.9 °F 46.9 °F 67% 30.34 in - ENE 10.4 mph 19.6 mph N/A   Unknown
10:54 PM 57.0 °F 48.0 °F 72% 30.34 in - ENE 11.5 mph 16.1 mph N/A   Unknown
11:54 PM 57.0 °F 48.0 °F 72% 30.32 in - NE 10.4 mph 17.3 mph N/A   Unknown